Regional Weather Roundup
Issued by NWS

Home | Current Version | Previous Version | Text Only | Print | Product List | Glossary On
Versions: 1 2 3 4 5 6 7 8 9 10 11 12 13 14 15 16 17 18 19 20 21 22 23 24 25 26 27 28 29 30 31 32 33 34 35 36 37 38 39 40 41 42 43 44 45 46 47 48 49 50
000
ASUS44 KFWD 290715
RWRTX
NORTH TEXAS HOURLY WEATHER ROUNDUP
NATIONAL WEATHER SERVICE FORT WORTH TX
100 AM CST MON DEC 29 2014

NOTE: "FAIR" INDICATES FEW OR NO CLOUDS BELOW 12,000 FEET WITH NO
SIGNIFICANT WEATHER AND/OR OBSTRUCTIONS TO VISIBILITY.

TXZ118-119-290800-
DALLAS/FORT WORTH METROPLEX

CITY           SKY/WX    TMP DP  RH WIND       PRES   REMARKS
DFW AIRPORT    PTCLDY    32  25  75 S3        30.13F
DALLAS LOVE    CLEAR     37  26  64 S3        30.14F
FTW MEACHAM    CLEAR     34  25  69 S3        30.12F
DAL-EXECUTIVE  CLEAR     34  25  69 S5        30.12F WCI  30
FTW-ALLIANCE   PTCLDY    31  24  75 CALM      30.12F
FTW-SPINKS     CLEAR     28  24  82 CALM      30.14F
ARLINGTON      CLEAR     32  24  72 CALM      30.13F
GRAND PRAIRIE  CLEAR     34  28  80 S5        30.15F WCI  30
ADDISON        CLEAR     36  27  71 CALM      30.15F
MESQUITE       CLEAR     28  26  91 E3        30.15F
LANCASTER      CLEAR     28  24  84 CALM      30.16S
$$

TXZ091>094-102>105-117-120-121-131>134-290800-
NORTH CENTRAL TEXAS

CITY           SKY/WX    TMP DP  RH WIND       PRES   REMARKS
SHRMAN/DENISON CLEAR     35  29  78 SE8       30.13F WCI  29
GAINESVILLE    CLEAR     31  24  76 SE3       30.13F
BOWIE          CLEAR     32  24  73 SE5       30.09F WCI  27
BRIDGEPORT     CLEAR     29  23  78 CALM      30.12F
DECATUR        CLEAR     36  24  62 S9        30.10F WCI  29
DENTON         CLEAR     32  24  72 S8        30.13F WCI  25
MCKINNEY       CLEAR     30  25  81 CALM      30.14F
GREENVILLE     CLEAR     28  27  93 CALM      30.16F
ROCKWALL       CLEAR     32  27  83 SE3       30.13F
TERRELL        CLEAR     30  25  81 CALM      30.16F
WAXAHACHIE     CLEAR     32  28  85 CALM      30.14F
CLEBURNE       CLEAR     34  27  75 S6        30.14F WCI  29
GRANBURY       CLEAR     33  27  79 CALM      30.13F
$$

TXZ083>090-098>101-113>116-127>130-139>142-154-155-290800-
WESTERN NORTH TEXAS

CITY           SKY/WX    TMP DP  RH WIND       PRES   REMARKS
WICHITA FALLS  CLEAR     31  24  75 SE6       30.05F WCI  25
WF-KICKAPOO    CLEAR     34  25  70 SE8       30.06F WCI  27
VERNON         PTCLDY    36  25  64 SE6       30.01F WCI  31
ABILENE        CLEAR     37  28  70 S8        30.05F WCI  31
ABILENE-DYESS  CLEAR     36  28  73 SW2       30.03F
BRECKENRIDGE   CLEAR     41  27  57 S12       30.06S WCI  34
GRAHAM         CLEAR     35  27  72 SE6       30.05F WCI  30
MINERAL WELLS  CLEAR     31  25  78 SE12      30.08F WCI  22
STEPHENVILLE   CLEAR     32  25  74 CALM      30.12F
COMANCHE       CLEAR     35  28  78 S9        30.09S WCI  27
BROWNWOOD      PTCLDY    34  27  75 SE5       30.09F WCI  30
COLEMAN        CLEAR     35  28  78 SW5       30.07F WCI  31
BRADY          CLEAR     36  27  69 S6        30.08S WCI  31
$$

TXZ143>147-156>162-174-175-290800-
CENTRAL TEXAS

CITY           SKY/WX    TMP DP  RH WIND       PRES   REMARKS
WACO           CLEAR     29  25  85 SW5       30.14F WCI  24
WACO-MCGREGOR  CLEAR     28  19  69 SW5       30.14F WCI  23
HILLSBORO      CLEAR     31  25  77 CALM      30.13F
CORSICANA      CLEAR     32  27  81 CALM      30.16F
MEXIA          CLEAR     31  28  89 CALM      30.15S
HEARNE         CLEAR     30  29  99 CALM      30.18F
CAMERON        CLEAR     32  30  92 CALM      30.16F
TEMPLE         CLEAR     28  21  74 SE5       30.13F WCI  23
KILLEEN        CLEAR     35  26  69 S7        30.12F WCI  29
KILLEEN-SKYLRK CLEAR     30  21  69 CALM      30.12F
FORT HOOD      CLEAR     32  26  79 S2        30.12F
GATESVILLE     CLEAR     32  27  80 CALM      30.14F
HAMILTON       CLEAR     31  26  80 S9        30.11S WCI  23
$$

TXZ095>097-106>112-122>126-135>138-148>153-164>167-290800-
EAST TEXAS

CITY           SKY/WX    TMP DP  RH WIND       PRES   REMARKS
PARIS          PTCLDY    28  25  86 CALM      30.17F
SULPHUR SPRNGS CLEAR     31  29  92 CALM      30.18F
MOUNT PLEASANT CLOUDY    32  32 100 CALM      30.18F
GILMER         CLOUDY    32  32  99 CALM      30.16S
MINEOLA        PTCLDY    30  28  93 CALM      30.17F
TYLER          CLOUDY    34  32  92 CALM      30.15S
LONGVIEW       CLOUDY    39  36  89 N3        30.15R
MARSHALL       CLOUDY    41  39  93 CALM      30.17S
ATHENS         CLEAR     28  28 100 CALM      30.15F
PALESTINE      CLOUDY    32  32 100 CALM      30.18S FOG
JACKSONVILLE   FOG       37  37 100 CALM      30.16R VSB<1/4
HENDERSON      FOG       38  38 100 CALM      30.16S VSB 1
NACOGDOCHES      N/A    N/A N/A N/A MISG        N/A
LUFKIN         CLOUDY    43  38  82 CALM      30.15S HAZE
$$

SUPPLEMENTAL OBSERVATIONS (CENTRAL)

CITY           SKY/WX    TMP DP  RH WIND       PRES   REMARKS
LAKE TEXOMA      N/A     32  28  86 E2          N/A
CADDO GRASSLND   N/A     30  27  86 S1          N/A
PAT MAYSE LAKE   N/A     32  28  86 CALM        N/A
GREENVILLE       N/A     32  30  93 E1          N/A
CEDAR HILL       N/A     34  25  69 S3          N/A
PALESTINE        N/A     32  32 100 CALM        N/A
LAKE LIMESTONE   N/A     32  30  93 W1          N/A
MCGREGOR         N/A     30  27  86 SW3         N/A
TEMPLE           N/A     36  27  69 SW1         N/A
$$

SUPPLEMENTAL OBSERVATIONS (WEST)

CITY           SKY/WX    TMP DP  RH WIND       PRES   REMARKS
POSSUM KINGDOM   N/A     37  25  60 S9          N/A  WCI  31
LBJ GRASSLAND    N/A     36  25  64 SE8         N/A  WCI  29
GRANBURY         N/A     32  27  80 S2          N/A
COMANCHE         N/A     36  27  69 S10         N/A  WCI  28
HAMBY            N/A     36  30  80 S8          N/A  WCI  29
IVIE RESERVOIR   N/A     37  28  70 SW2         N/A
COLORADO BEND    N/A     36  30  80 S1          N/A
$$

SUPPLEMENTAL OBSERVATIONS (EAST)

CITY           SKY/WX    TMP DP  RH WIND       PRES   REMARKS
CADDO LAKE       N/A     41  39  93 CALM        N/A
LUFKIN           N/A     39  36  87 MISG        N/A
N SABINE NF      N/A     43  41  93 MISG        N/A
$$

SUPPLEMENTAL OBSERVATIONS ARE A COLLECTION OF AUTOMATED INSTRUMENTS
THAT ARE MAINTAINED BY A VARIETY OF FEDERAL AND STATE AGENCIES.
CERTAIN ELEMENTS...SUCH AS HUMIDITY VALUES AND SUSTAINED WIND
SPEEDS...MAY BE APPROXIMATED.



USA.gov is the U.S. government's official web portal to all federal, state and local government web resources and services.